LIPHLIPZ

Guest
Details From LIPH - TREVISO
To LIPZ - Venezia Tessera
Flight Number -
Tags decoded
Created
Modified
Stats Distance 17 nm / 31 km
Max Altitude 0 ft / 0 m
Waypoints 3
Social Downloads 5
Likes 0
Share VATSIM

Download

Looking for another format? Having issues loading an existing format? Contact us
Advertisement - Login to hide

Notes

Requested: LIPH VEN LIPZ

Route

LIPH VEN LIPZ

ID Type Via Altitude Latitude Longitude Leg Dist Tot Dist Heading (true) Name
O LIPH APT - 0 ft / 0 m 45.64850˚ 12.19414˚ - 0 nm - TREVISO
VEN NDB - 0 ft / 0 m 45.44911˚ 12.27692˚ 12 nm 12 nm 164° / 164° VENEZIA NDB
O LIPZ APT - 0 ft / 0 m 45.50479˚ 12.34969˚ 4 nm 17 nm 42° / 43° Venezia Tessera

Altitude Profile

Advertisement - Login to hide

LIPH

Details ICAO LIPH (TSF)
Name TREVISO
Region Italy
Timezone Europe/Rome (UTC+2.0)
Stats Elevation 59 ft / 18 m (AMSL)
Location 45.648499° 12.194136°
Runways 1
Magnetic Variation 3.202° E

METAR

LIPH 220020Z AUTO 01006KT 9999 FEW140 SCT230 19/12 Q1012

Decode

TAF

TAF LIPH 212300Z 2200/2224 04008KT 9999 SCT040 TEMPO 2203/2209 RA TEMPO 2212/2218 4000 TSRA

Decode

Departure Runways

ID Width Length Bearing (true) Bearing (mag) Surface Threshold Offset Overrun Length
07 144 ft / 44 m 7,919 ft / 2,414 m 69.18° 65.98° Asphalt 254 ft / 77 m 975 ft / 297 m
25 144 ft / 44 m 7,919 ft / 2,414 m 249.20° 246.00° Asphalt 389 ft / 119 m 0 ft / 0 m

LIPZ

Details ICAO LIPZ (VCE)
Name Venezia Tessera
Region Italy
Timezone Europe/Rome (UTC+2.0)
Stats Elevation 7 ft / 2 m (AMSL)
Location 45.504791° 12.349691°
Runways 2
Magnetic Variation 3.229° E

METAR

LIPZ 220020Z 01009KT CAVOK 18/12 Q1012 NOSIG

Decode

TAF

TAF LIPZ 212300Z 2200/2306 03010KT 9999 SCT040 TEMPO 2203/2209 RA BECMG 2210/2212 12010KT TEMPO 2212/2218 4000 TSRA BECMG 2218/2221 03010KT

Decode

Destination Runways

ID Width Length Bearing (true) Bearing (mag) Surface Threshold Offset Overrun Length
04L 148 ft / 45 m 9,112 ft / 2,777 m 42.01° 38.78° Asphalt 312 ft / 95 m 0 ft / 0 m
04R 148 ft / 45 m 10,834 ft / 3,302 m 41.99° 38.76° Asphalt 0 ft / 0 m 0 ft / 0 m
22L 148 ft / 45 m 10,834 ft / 3,302 m 222.01° 218.78° Asphalt 0 ft / 0 m 0 ft / 0 m
22R 148 ft / 45 m 9,112 ft / 2,777 m 222.02° 218.79° Asphalt 0 ft / 0 m 0 ft / 0 m

Approach Navaids

Runway Type Ident Frequency Range Bearing (true) Bearing (mag) Slope Elevation
04R Localiser VTS 109.95 MHz 18 nm / 33 km 42.02° 38.79° - 13 ft / 4 m (AMSL)
04R Glidescope VTS 109.95 MHz 10 nm / 19 km 42.00° 38.77° 3.00° 52 ft / 16 m (AMSL)
04R DME VTS 109.95 MHz 18 nm / 33 km - - - 26 ft / 8 m (AMSL)

Popular Alternatives